TimeCDT,TemperatureF,Dew PointF,Humidity,Sea Level PressureIn,VisibilityMPH,Wind Direction,Wind SpeedMPH,Gust SpeedMPH,PrecipitationIn,Events,Conditions,WindDirDegrees,DateUTC
12:15 AM,41.0,23.0,49,29.98,10.0,SSW,12.7,-,N/A,,Clear,210,2012-10-08 05:15:00
12:35 AM,41.0,23.0,49,29.97,10.0,SSW,15.0,-,N/A,,Clear,200,2012-10-08 05:35:00
12:55 AM,41.0,23.0,49,29.97,10.0,SSW,12.7,-,N/A,,Clear,210,2012-10-08 05:55:00
1:15 AM,41.0,24.8,53,29.97,10.0,SSW,13.8,-,N/A,,Clear,210,2012-10-08 06:15:00
1:35 AM,39.2,24.8,56,29.97,10.0,SSW,12.7,-,N/A,,Clear,210,2012-10-08 06:35:00
1:55 AM,39.2,24.8,56,29.96,10.0,SSW,12.7,-,N/A,,Clear,200,2012-10-08 06:55:00
2:15 AM,39.2,24.8,56,29.96,10.0,SSW,13.8,-,N/A,,Clear,200,2012-10-08 07:15:00
2:35 AM,39.2,24.8,56,29.96,10.0,SSW,10.4,16.1,N/A,,Clear,200,2012-10-08 07:35:00
2:55 AM,39.2,24.8,56,29.95,10.0,SSW,11.5,-,N/A,,Clear,200,2012-10-08 07:55:00
3:15 AM,39.2,26.6,61,29.94,10.0,SSW,11.5,17.3,N/A,,Clear,200,2012-10-08 08:15:00
3:35 AM,39.2,26.6,61,29.93,10.0,SSW,13.8,-,N/A,,Clear,210,2012-10-08 08:35:00
3:55 AM,39.2,26.6,61,29.92,10.0,SSW,10.4,18.4,N/A,,Clear,200,2012-10-08 08:55:00
4:15 AM,39.2,28.4,65,29.92,10.0,SSW,10.4,-,N/A,,Clear,210,2012-10-08 09:15:00
4:35 AM,39.2,28.4,65,29.91,10.0,SSW,12.7,-,N/A,,Clear,200,2012-10-08 09:35:00
4:55 AM,39.2,28.4,65,29.91,10.0,SSW,10.4,-,N/A,,Clear,210,2012-10-08 09:55:00
5:15 AM,39.2,28.4,65,29.91,10.0,SSW,9.2,-,N/A,,Clear,210,2012-10-08 10:15:00
5:35 AM,39.2,28.4,65,29.91,10.0,SSW,9.2,-,N/A,,Clear,210,2012-10-08 10:35:00
5:55 AM,39.2,28.4,65,29.91,10.0,SSW,6.9,-,N/A,,Clear,210,2012-10-08 10:55:00
6:15 AM,39.2,30.2,70,29.91,10.0,SSW,9.2,-,N/A,,Clear,210,2012-10-08 11:15:00
6:35 AM,39.2,30.2,70,29.91,10.0,SSW,8.1,-,N/A,,Clear,210,2012-10-08 11:35:00
6:55 AM,39.2,30.2,70,29.90,10.0,SSW,8.1,-,N/A,,Scattered Clouds,200,2012-10-08 11:55:00
7:15 AM,39.2,30.2,70,29.90,10.0,SSW,9.2,-,N/A,,Mostly Cloudy,200,2012-10-08 12:15:00
7:35 AM,37.4,30.2,75,29.90,10.0,SSW,8.1,-,N/A,,Scattered Clouds,200,2012-10-08 12:35:00
7:55 AM,39.2,30.2,70,29.90,10.0,SSW,9.2,-,N/A,,Clear,200,2012-10-08 12:55:00
8:15 AM,39.2,30.2,70,29.90,10.0,SSW,10.4,-,N/A,,Clear,200,2012-10-08 13:15:00
8:35 AM,41.0,32.0,70,29.90,10.0,SSW,11.5,-,N/A,,Scattered Clouds,200,2012-10-08 13:35:00
8:55 AM,42.8,32.0,66,29.90,10.0,SSW,13.8,19.6,N/A,,Mostly Cloudy,210,2012-10-08 13:55:00
9:15 AM,44.6,32.0,61,29.89,10.0,SSW,15.0,-,N/A,,Partly Cloudy,210,2012-10-08 14:15:00
9:35 AM,46.4,32.0,57,29.88,10.0,SSW,16.1,-,N/A,,Mostly Cloudy,210,2012-10-08 14:35:00
9:55 AM,46.4,32.0,57,29.87,10.0,SSW,17.3,24.2,N/A,,Overcast,200,2012-10-08 14:55:00
10:15 AM,48.2,33.8,58,29.87,10.0,SSW,15.0,21.9,N/A,,Mostly Cloudy,210,2012-10-08 15:15:00
10:35 AM,50.0,32.0,50,29.88,10.0,SSW,16.1,20.7,N/A,,Scattered Clouds,210,2012-10-08 15:35:00
10:55 AM,51.8,33.8,50,29.87,10.0,SSW,19.6,25.3,N/A,,Partly Cloudy,200,2012-10-08 15:55:00
11:15 AM,53.6,33.8,47,29.87,10.0,SSW,19.6,25.3,N/A,,Clear,200,2012-10-08 16:15:00
11:35 AM,55.4,33.8,44,29.86,10.0,SSW,15.0,24.2,N/A,,Clear,210,2012-10-08 16:35:00
11:55 AM,57.2,33.8,41,29.85,10.0,SSW,20.7,25.3,N/A,,Clear,200,2012-10-08 16:55:00
12:15 PM,62.6,35.6,37,29.85,10.0,SSW,19.6,25.3,N/A,,Clear,210,2012-10-08 17:15:00
12:35 PM,64.4,33.8,32,29.84,10.0,SW,20.7,27.6,N/A,,Clear,220,2012-10-08 17:35:00
12:55 PM,66.2,33.8,30,29.82,10.0,SW,21.9,29.9,N/A,,Clear,220,2012-10-08 17:55:00
1:15 PM,66.2,32.0,28,29.81,10.0,SSW,25.3,33.4,N/A,,Clear,210,2012-10-08 18:15:00
1:35 PM,68.0,32.0,26,29.80,10.0,SW,25.3,33.4,N/A,,Clear,230,2012-10-08 18:35:00
1:55 PM,68.0,30.2,24,29.79,10.0,SW,23.0,33.4,N/A,,Clear,220,2012-10-08 18:55:00
2:15 PM,68.0,32.0,26,29.78,10.0,SW,21.9,32.2,N/A,,Clear,220,2012-10-08 19:15:00
2:35 PM,68.0,33.8,28,29.78,10.0,SSW,26.5,32.2,N/A,,Clear,210,2012-10-08 19:35:00
2:55 PM,68.0,32.0,26,29.77,10.0,SSW,23.0,31.1,N/A,,Clear,210,2012-10-08 19:55:00
3:15 PM,66.2,30.2,26,29.77,10.0,SSW,24.2,33.4,N/A,,Clear,210,2012-10-08 20:15:00
3:35 PM,66.2,30.2,26,29.76,10.0,SW,23.0,31.1,N/A,,Partly Cloudy,220,2012-10-08 20:35:00
3:55 PM,66.2,30.2,26,29.76,10.0,SSW,19.6,29.9,N/A,,Scattered Clouds,210,2012-10-08 20:55:00
4:15 PM,66.2,30.2,26,29.75,10.0,SSW,21.9,31.1,N/A,,Partly Cloudy,210,2012-10-08 21:15:00
4:35 PM,66.2,30.2,26,29.75,10.0,SW,25.3,31.1,N/A,,Scattered Clouds,230,2012-10-08 21:35:00
4:55 PM,66.2,30.2,26,29.75,10.0,SSW,21.9,32.2,N/A,,Partly Cloudy,210,2012-10-08 21:55:00
5:15 PM,66.2,32.0,28,29.75,10.0,SW,21.9,32.2,N/A,,Clear,220,2012-10-08 22:15:00
5:35 PM,66.2,32.0,28,29.75,10.0,SW,16.1,23.0,N/A,,Clear,220,2012-10-08 22:35:00
5:55 PM,64.4,30.2,28,29.75,10.0,SSW,20.7,29.9,N/A,,Clear,210,2012-10-08 22:55:00
6:15 PM,64.4,30.2,28,29.75,10.0,SSW,19.6,25.3,N/A,,Clear,200,2012-10-08 23:15:00
6:35 PM,62.6,30.2,30,29.75,10.0,SSW,15.0,24.2,N/A,,Clear,200,2012-10-08 23:35:00
6:55 PM,62.6,30.2,30,29.75,10.0,SSW,16.1,23.0,N/A,,Clear,200,2012-10-08 23:55:00
7:15 PM,62.6,30.2,30,29.75,10.0,South,16.1,21.9,N/A,,Clear,190,2012-10-09 00:15:00
7:35 PM,60.8,30.2,31,29.75,10.0,SSW,13.8,21.9,N/A,,Clear,200,2012-10-09 00:35:00
7:55 PM,60.8,30.2,31,29.75,10.0,SSW,13.8,20.7,N/A,,Mostly Cloudy,200,2012-10-09 00:55:00
8:35 PM,62.6,32.0,32,29.78,10.0,SSW,15.0,19.6,N/A,,Overcast,210,2012-10-09 01:35:00
8:55 PM,62.6,32.0,32,29.79,10.0,SW,12.7,23.0,N/A,,Overcast,220,2012-10-09 01:55:00
9:15 PM,60.8,32.0,34,29.80,10.0,SSW,15.0,-,N/A,,Overcast,210,2012-10-09 02:15:00
9:35 PM,59.0,32.0,36,29.81,10.0,WSW,8.1,-,N/A,,Scattered Clouds,250,2012-10-09 02:35:00
9:55 PM,57.2,32.0,38,29.81,10.0,WSW,5.8,-,N/A,,Clear,250,2012-10-09 02:55:00
10:15 PM,55.4,32.0,41,29.81,10.0,SW,3.5,-,N/A,,Partly Cloudy,230,2012-10-09 03:15:00
10:55 PM,53.6,30.2,41,29.82,10.0,NNW,5.8,-,N/A,,Clear,340,2012-10-09 03:55:00
11:15 PM,53.6,30.2,41,29.83,10.0,SSW,4.6,-,N/A,,Partly Cloudy,210,2012-10-09 04:15:00
11:35 PM,55.4,33.8,44,29.84,10.0,NE,5.8,-,N/A,,Partly Cloudy,40,2012-10-09 04:35:00
11:55 PM,53.6,37.4,54,29.85,10.0,NNE,3.5,-,N/A,,Partly Cloudy,30,2012-10-09 04:55:00